Weather Roundup
Issued by NWS

Home | Current Version | Previous Version | Text Only | Print | Product List | Glossary On
Versions: 1 2 3 4 5 6 7 8 9 10 11 12 13 14 15 16 17 18 19 20 21 22 23 24 25 26 27 28 29 30 31 32 33 34 35 36 37 38 39 40 41 42 43 44 45 46 47 48 49 50
000
NZUS93 KARX 061910
HRRWXR

CURRENT HOURLY OBSERVATIONS ACROSS
MUCH OF THE UPPER MISSISSIPPI VALLEY
NATIONAL WEATHER SERVICE LA CROSSE WI
200 PM CDT WED MAY 06 2015


...SOUTHEAST MINNESOTA...


CITY           SKY/WX    TMP DP  RH WIND       PRES   REMARKS
ROCHESTER      CLOUDY    70  61  73 SE20G25   29.99F
ROCHESTER/MAYO FAIR      69  60  72 E9G20     29.99F
WINONA         MOSUNNY   72  61  68 SE8       30.02F
AUSTIN         PTSUNNY   70  61  73 SE15G23   29.96F
ALBERT LEA     PTSUNNY   72  61  68 SE21G28   29.93F
DODGE CENTER   CLOUDY    73  61  64 SE17G25   29.97F
PRESTON        CLOUDY    70  59  69 SE13      30.01F
OWATONNA       PTSUNNY   75  57  53 SE21      29.94F
FARIBAULT      PTSUNNY   75  59  57 E17G23    29.94F
$$

...ELSEWHERE IN MINNESOTA...


CITY           SKY/WX    TMP DP  RH WIND       PRES   REMARKS
MINNEAPOLIS    CLOUDY    69  59  70 E16       29.96F
INTNL FALLS    CLOUDY    66  54  65 SE13      29.97F
DULUTH         CLOUDY    56  49  77 E13       30.06F
RED WING       PTSUNNY   70  59  68 SE12      29.98F
REDWOOD FALLS  PTSUNNY   76  56  49 SE23G36   29.81F
MANKATO        PTSUNNY   75  57  53 SE22G33   29.89F
WORTHINGTON    PTSUNNY   64  61  88 S24G31    29.83F
FAIRMONT       PTSUNNY   72  45  37 SE24G30   29.85F
$$

...SOUTHWEST WISCONSIN...


CITY           SKY/WX    TMP DP  RH WIND       PRES   REMARKS
LA CROSSE      MOSUNNY   77  60  55 SE8       30.02F
PRAIRIE DU CHI PTSUNNY   74  59  59 SE9       30.03F
BOSCOBEL       PTSUNNY   74  60  61 E8        30.06F
LONE ROCK      PTSUNNY   72  62  71 E10       30.07F
PLATTEVILLE    PTSUNNY   74  64  70 E10       30.07F
FORT MC COY    PTSUNNY   73  58  60 E12       30.07F
CAMP DOUGLAS   PTSUNNY   72  64  78 SE9       30.07F
VIROQUA        FAIR      71  61  70 E13       30.06F
WIS DELLS      NOT AVBL
$$

...ELSEWHERE IN WISCONSIN...


CITY           SKY/WX    TMP DP  RH WIND       PRES   REMARKS
MILWAUKEE      PTSUNNY   56  51  84 E9        30.18F HAZE
MADISON        PTSUNNY   70  61  73 E8        30.11F
GREEN BAY      PTSUNNY   69  57  65 VRB6      30.17F
EAU CLAIRE     PTSUNNY   69  58  67 SE8       30.04F
BLACK RVR FLS  FAIR      74  56  53 E7        30.05F
MEDFORD        LGT RAIN  63  55  77 SE8       30.11F
WAUSAU         PTSUNNY   67  56  67 SE10      30.11F
WIS RAPIDS     PTSUNNY   72  55  55 S12       30.11F
MARSHFIELD     PTSUNNY   73  56  54 SE13      30.10F
RICE LAKE      CLOUDY    69  56  65 SE13      30.06F
$$

...NORTHEAST IOWA...


CITY           SKY/WX    TMP DP  RH WIND       PRES   REMARKS
DECORAH        PTSUNNY   72  61  68 SE12G18   30.01F
MASON CITY     PTSUNNY   74  63  68 SE21G32   29.94F
CHARLES CITY   CLOUDY    75  63  64 SE20G28   29.97F
OELWEIN        MOSUNNY   77  61  57 S23G35    30.00F
$$

...ELSEWHERE IN IOWA...


CITY           SKY/WX    TMP DP  RH WIND       PRES   REMARKS
DES MOINES     CLOUDY    76  58  53 S20       29.93F
IOWA CITY      MOSUNNY   80  57  45 SE25G33   30.01F
FORT DODGE     CLOUDY    73  61  64 S20G29    29.90F
$$

...NORTHERN ILLINOIS...


CITY           SKY/WX    TMP DP  RH WIND       PRES   REMARKS
CHICAGO-OHARE  MOSUNNY   74  58  57 NE12      30.12F
CHICAGO-MIDWAY PTSUNNY   81  61  50 E6        30.12F HAZE
MOLINE         MOSUNNY   83  54  36 S14G26    30.03F
ROCKFORD       PTSUNNY   77  63  61 SE10      30.11F
PEORIA         PTSUNNY   84  51  31 S18G25    30.07F
$$

NOTE: "FAIR" INDICATES FEW OR NO CLOUDS BELOW 12,000 FEET WITH NO
SIGNIFICANT WEATHER AND/OR OBSTRUCTIONS TO VISIBILITY. WIND
SPEEDS ARE IN MILES-PER-HOUR.



USA.gov is the U.S. government's official web portal to all federal, state and local government web resources and services.